• In Uzbekistan
  • List of Countries
  • For 7 days
  • Water Temperature
  • Satellite Maps
  • Weather Map
  • Weather Widgets
  • user-avatar
    Login

    Hourly Weather Lokiec

    Today, 19 July, Thursday

    Time Temperature Precipitation Wind Pressure Humidity
    00:00 +16°C° 0 mm 1 mps 698 mmHg 97%
    01:00 +16°C° 0 mm 2 mps 698 mmHg 98%
    02:00 +18°C° 0 mm 1 mps 698 mmHg 98%
    03:00 +17°C° 0.1 mm 2 mps 698 mmHg 98%
    04:00 +17°C° 0.1 mm 2 mps 698 mmHg 98%
    05:00 +17°C° 0.1 mm 2 mps 699 mmHg 98%
    06:00 +17°C° 0.1 mm 2 mps 699 mmHg 97%
    07:00 +18°C° 0.1 mm 2 mps 699 mmHg 95%
    08:00 +18°C° 0.1 mm 3 mps 700 mmHg 94%
    09:00 +19°C° 0.1 mm 3 mps 700 mmHg 93%
    10:00 +19°C° 0.1 mm 3 mps 700 mmHg 92%
    11:00 +19°C° 0.1 mm 3 mps 700 mmHg 91%
    12:00 +19°C° 0.1 mm 3 mps 700 mmHg 90%
    13:00 +20°C° 0.1 mm 3 mps 700 mmHg 88%
    14:00 +20°C° 0.1 mm 4 mps 701 mmHg 87%
    15:00 +20°C° 0.1 mm 4 mps 701 mmHg 86%
    16:00 +20°C° 0.1 mm 4 mps 701 mmHg 85%
    17:00 +20°C° 0.1 mm 4 mps 701 mmHg 84%
    18:00 +19°C° 0 mm 3 mps 700 mmHg 87%
    19:00 +19°C° 0 mm 3 mps 700 mmHg 90%
    20:00 +18°C° 0 mm 3 mps 700 mmHg 92%
    21:00 +18°C° 0.1 mm 2 mps 701 mmHg 94%
    22:00 +17°C° 0.1 mm 2 mps 701 mmHg 95%
    23:00 +17°C° 0.1 mm 2 mps 701 mmHg 96%

    Tomorrow, 20 July, Friday

    Time Temperature Precipitation Wind Pressure Humidity
    00:00 +16°C° 0 mm 2 mps 701 mmHg 97%
    01:00 +16°C° 0 mm 2 mps 701 mmHg 97%
    02:00 +16°C° 0 mm 2 mps 701 mmHg 97%
    03:00 +16°C° 0 mm 2 mps 701 mmHg 97%
    04:00 +16°C° 0 mm 2 mps 701 mmHg 97%
    05:00 +15°C° 0 mm 2 mps 701 mmHg 97%
    06:00 +16°C° 0.1 mm 2 mps 701 mmHg 95%
    07:00 +17°C° 0.1 mm 2 mps 701 mmHg 92%
    08:00 +18°C° 0.1 mm 3 mps 701 mmHg 90%
    09:00 +18°C° 0.2 mm 3 mps 702 mmHg 90%
    10:00 +18°C° 0.2 mm 3 mps 702 mmHg 89%
    11:00 +18°C° 0.2 mm 3 mps 702 mmHg 89%
    12:00 +19°C° 0.1 mm 3 mps 702 mmHg 87%
    13:00 +19°C° 0.1 mm 3 mps 702 mmHg 84%
    14:00 +19°C° 0.1 mm 3 mps 702 mmHg 82%
    15:00 +20°C° 0 mm 3 mps 702 mmHg 77%
    16:00 +21°C° 0 mm 4 mps 702 mmHg 72%
    17:00 +22°C° 0 mm 4 mps 702 mmHg 67%
    18:00 +21°C° 0 mm 3 mps 702 mmHg 73%
    19:00 +19°C° 0 mm 3 mps 702 mmHg 80%
    20:00 +18°C° 0 mm 2 mps 702 mmHg 86%
    21:00 +17°C° 0 mm 2 mps 702 mmHg 89%
    22:00 +16°C° 0 mm 2 mps 702 mmHg 91%
    23:00 +15°C° 0 mm 1 mps 702 mmHg 94%

    Day after tomorrow, 21 July, Saturday

    Time Temperature Precipitation Wind Pressure Humidity
    00:00 +15°C° 0 mm 1 mps 702 mmHg 94%
    01:00 +15°C° 0 mm 1 mps 702 mmHg 95%
    02:00 +14°C° 0 mm 1 mps 702 mmHg 95%
    03:00 +14°C° 0 mm 1 mps 702 mmHg 96%
    04:00 +14°C° 0 mm 1 mps 702 mmHg 96%
    05:00 +13°C° 0 mm 1 mps 702 mmHg 96%
    06:00 +15°C° 0 mm 1 mps 702 mmHg 91%
    07:00 +17°C° 0 mm 2 mps 703 mmHg 86%
    08:00 +18°C° 0 mm 2 mps 703 mmHg 80%
    09:00 +20°C° 0 mm 2 mps 703 mmHg 74%
    10:00 +21°C° 0 mm 2 mps 703 mmHg 67%
    11:00 +24°C° 0 mm 2 mps 704 mmHg 61%
    12:00 +24°C° 0.1 mm 2 mps 703 mmHg 59%
    13:00 +25°C° 0.1 mm 2 mps 703 mmHg 57%
    14:00 +25°C° 0.1 mm 2 mps 703 mmHg 55%
    15:00 +25°C° 0.1 mm 2 mps 703 mmHg 57%
    16:00 +25°C° 0.1 mm 2 mps 703 mmHg 59%
    17:00 +25°C° 0.1 mm 2 mps 703 mmHg 61%
    18:00 +23°C° 0.1 mm 2 mps 702 mmHg 69%
    19:00 +21°C° 0.1 mm 1 mps 702 mmHg 78%
    20:00 +19°C° 0.1 mm 1 mps 702 mmHg 87%
    21:00 +18°C° 0 mm 1 mps 702 mmHg 88%
    22:00 +18°C° 0 mm 1 mps 702 mmHg 90%
    23:00 +16°C° 0 mm 1 mps 702 mmHg 91%

    22 July, Sunday

    Time Temperature Precipitation Wind Pressure Humidity
    00:00 +15°C° 0 mm 1 mps 702 mmHg 92%
    01:00 +15°C° 0 mm 1 mps 702 mmHg 92%
    02:00 +15°C° 0 mm 1 mps 702 mmHg 92%
    03:00 +15°C° 0 mm 1 mps 701 mmHg 92%
    04:00 +15°C° 0 mm 1 mps 701 mmHg 92%
    05:00 +15°C° 0 mm 1 mps 701 mmHg 91%
    06:00 +16°C° 0 mm 0 mps 701 mmHg 87%
    07:00 +17°C° 0 mm 0 mps 702 mmHg 83%
    08:00 +19°C° 0 mm 0 mps 702 mmHg 79%
    09:00 +20°C° 0.7 mm 0 mps 702 mmHg 77%
    10:00 +22°C° 0.7 mm 1 mps 702 mmHg 75%
    11:00 +23°C° 0.7 mm 1 mps 701 mmHg 74%
    12:00 +23°C° 0.9 mm 1 mps 701 mmHg 74%
    13:00 +23°C° 0.9 mm 1 mps 701 mmHg 75%
    14:00 +23°C° 0.9 mm 1 mps 701 mmHg 76%
    15:00 +23°C° 0.8 mm 1 mps 700 mmHg 77%
    16:00 +23°C° 0.8 mm 1 mps 700 mmHg 78%
    17:00 +23°C° 0.8 mm 1 mps 700 mmHg 79%
    18:00 +22°C° 0.6 mm 1 mps 700 mmHg 83%
    19:00 +21°C° 0.6 mm 1 mps 700 mmHg 86%
    20:00 +19°C° 0.6 mm 1 mps 700 mmHg 90%
    21:00 +19°C° 0 mm 1 mps 699 mmHg 91%
    22:00 +18°C° 0 mm 1 mps 699 mmHg 91%
    23:00 +16°C° 0 mm 1 mps 699 mmHg 92%

    23 July, Monday

    Time Temperature Precipitation Wind Pressure Humidity
    00:00 +16°C° 0 mm 1 mps 699 mmHg 93%
    01:00 +15°C° 0 mm 1 mps 699 mmHg 93%
    02:00 +15°C° 0 mm 1 mps 699 mmHg 93%
    03:00 +15°C° 0.1 mm 1 mps 699 mmHg 93%
    04:00 +15°C° 0.1 mm 1 mps 699 mmHg 93%
    05:00 +14°C° 0.1 mm 2 mps 699 mmHg 93%
    06:00 +15°C° 0.1 mm 2 mps 699 mmHg 90%
    07:00 +16°C° 0.1 mm 2 mps 699 mmHg 88%
    08:00 +17°C° 0.1 mm 2 mps 700 mmHg 86%
    09:00 +19°C° 0.1 mm 3 mps 700 mmHg 81%
    10:00 +20°C° 0.1 mm 3 mps 700 mmHg 77%
    11:00 +21°C° 0.1 mm 3 mps 700 mmHg 73%
    12:00 +21°C° 0.2 mm 3 mps 700 mmHg 71%
    13:00 +22°C° 0.2 mm 4 mps 700 mmHg 69%
    14:00 +23°C° 0.2 mm 4 mps 700 mmHg 67%
    15:00 +22°C° 0.5 mm 4 mps 700 mmHg 73%
    16:00 +21°C° 0.5 mm 4 mps 700 mmHg 78%
    17:00 +21°C° 0.5 mm 4 mps 700 mmHg 84%
    18:00 +20°C° 0.4 mm 3 mps 700 mmHg 86%
    19:00 +19°C° 0.4 mm 3 mps 700 mmHg 89%
    20:00 +18°C° 0.4 mm 2 mps 700 mmHg 91%
    21:00 +17°C° 0.1 mm 2 mps 701 mmHg 91%
    22:00 +17°C° 0.1 mm 2 mps 701 mmHg 92%
    23:00 +16°C° 0.1 mm 2 mps 701 mmHg 92%

    24 July, Tuesday

    Time Temperature Precipitation Wind Pressure Humidity
    00:00 +16°C° 0 mm 2 mps 701 mmHg 92%
    01:00 +15°C° 0 mm 2 mps 701 mmHg 92%
    02:00 +15°C° 0 mm 2 mps 701 mmHg 92%
    03:00 +15°C° 0 mm 2 mps 701 mmHg 92%
    04:00 +15°C° 0 mm 2 mps 701 mmHg 93%
    05:00 +14°C° 0 mm 2 mps 701 mmHg 93%
    06:00 +15°C° 0 mm 2 mps 702 mmHg 91%
    07:00 +16°C° 0 mm 2 mps 702 mmHg 89%
    08:00 +17°C° 0 mm 2 mps 702 mmHg 88%
    09:00 +19°C° 0 mm 3 mps 703 mmHg 82%
    10:00 +20°C° 0 mm 3 mps 703 mmHg 75%
    11:00 +21°C° 0 mm 3 mps 703 mmHg 69%
    12:00 +22°C° 0.2 mm 3 mps 703 mmHg 67%
    13:00 +22°C° 0.2 mm 3 mps 703 mmHg 65%
    14:00 +24°C° 0.2 mm 3 mps 703 mmHg 63%
    15:00 +24°C° 0.3 mm 3 mps 703 mmHg 65%
    16:00 +22°C° 0.3 mm 3 mps 703 mmHg 67%
    17:00 +22°C° 0.3 mm 3 mps 703 mmHg 69%
    18:00 +21°C° 0.1 mm 2 mps 703 mmHg 76%
    19:00 +19°C° 0.1 mm 2 mps 703 mmHg 82%
    20:00 +19°C° 0.1 mm 1 mps 703 mmHg 88%
    21:00 +18°C° 0 mm 1 mps 703 mmHg 90%
    22:00 +16°C° 0 mm 1 mps 703 mmHg 92%
    23:00 +15°C° 0 mm 1 mps 703 mmHg 93%
    Show more